Flag for Gambia Weather past 2 weeks in Serekunda, Gambia

Now
81 °F

Light rain. Passing clouds.


Feels Like: 88 °F
Forecast: 81 / 90 °F
Wind: 5 mph from Southwest

Location: Banjul / Yundum

Current Time: Jul 24, 2014 at 12:39:24 AM

Latest Report: Jul 24, 2014 at 12:00 AM


Visibility: 6 mi

Pressure: 30.01 "Hg

Humidity: 94%

Dew point: 79 °F

Location of SerekundaLocation

Historic Weather in Serekunda — Graph

°F

Serekunda temperature yesterday

Maximum temperature yesterday: 88 °F (at 11:00 AM)
Minimum temperature yesterday: 79 °F (at 9:00 AM)
Average temperature yesterday: 83 °F

Past Weeks' High & Low Weather Summary

 TemperatureHumidityPressure
High93 °F (Jul 9, 2:00 PM)100% (Jul 11, 9:00 PM)30.01 "Hg (Jul 11, 9:00 PM)
Low73 °F (Jul 11, 8:00 PM)47% (Jul 9, 3:00 PM)29.83 "Hg (Jul 14, 7:00 AM)
Average83 °F78%29.92 "Hg
* Reported Jul 8 11:00 PM — Jul 23 11:00 PM, Serekunda, Weather by CustomWeather, © 2014

Note: Actual official high and low records may vary slightly from our data, if they occured in-between our weather recording intervals... More about our weather records

Advertising

Serekunda weather history for previous 24 hours

 ConditionsComfort  
Time TempWeatherWind HumidityBarometerVisibility
11:00 PM
Jul 23
81 °FPassing clouds.3 mph94%29.98 "HgN/A
10:00 PM81 °FLight rain. Partly cloudy.No wind94%29.98 "Hg6 mi
9:00 PM82 °FPassing clouds.2 mph84%29.92 "HgN/A
8:00 PM82 °FPartly cloudy.3 mph89%29.92 "HgN/A
7:00 PM84 °FBroken clouds.9 mph74%29.92 "HgN/A
6:00 PM86 °FPartly sunny.9 mph70%29.92 "HgN/A
5:00 PM86 °FPartly sunny.8 mph70%29.92 "HgN/A
4:00 PM86 °FBroken clouds.12 mph75%29.95 "HgN/A
3:00 PM84 °FBroken clouds.9 mph84%29.95 "HgN/A
2:00 PM81 °FLight rain. Partly sunny.10 mph94%29.98 "Hg6 mi
1:00 PM79 °FLight rain. Partly sunny.10 mph94%29.98 "HgN/A
12:00 PM88 °FPartly sunny.8 mph70%29.95 "HgN/A
11:00 AM88 °FPartly sunny.8 mph70%29.95 "HgN/A
10:00 AM84 °FPartly sunny.6 mph84%29.95 "HgN/A
9:00 AM79 °FBroken clouds.6 mph94%29.95 "HgN/A
6:00 AM81 °FPassing clouds.3 mph84%29.92 "HgN/A
5:00 AM81 °FPassing clouds.2 mph84%29.92 "HgN/A
4:00 AM81 °FPassing clouds.5 mph79%29.92 "HgN/A
3:00 AM81 °FPassing clouds.5 mph84%29.92 "HgN/A
2:00 AM81 °FPassing clouds.3 mph84%29.92 "HgN/A
1:00 AM81 °FPassing clouds.3 mph84%29.95 "HgN/A
12:00 AM82 °FPassing clouds.5 mph79%29.95 "HgN/A
Weather by CustomWeather, © 2014

See weather overviewHow to use our weather pages